Regional Weather Roundup
Issued by NWS

Home | Current Version | Previous Version | Graphics & Text | Print | Product List | Glossary On
Versions: 1 2 3 4 5 6 7 8 9 10 11 12 13 14 15 16 17 18 19 20 21 22 23 24 25 26 27 28 29 30 31 32 33 34 35 36 37 38 39 40 41 42 43 44 45 46 47 48 49 50
000
ASUS43 KMPX 181901
RWRMN
WEATHER ROUNDUP FOR MINNESOTA
NATIONAL WEATHER SERVICE TWIN CITIES/CHANHASSEN MN
200 PM CDT SAT APR 18 2015


NOTE: "FAIR" INDICATES FEW OR NO CLOUDS BELOW 12,000 FEET WITH NO
SIGNIFICANT WEATHER AND/OR OBSTRUCTIONS TO VISIBILITY. N/A MEANS
CURRENT SKY AND/OR WEATHER CONDITIONS ARE NOT AVAILABLE.

MNZ060>063-068>070-182000-
   Twin Cities Metro

CITY           SKY/WX    TMP DP  RH WIND       PRES   REMARKS
TWIN CITIES    PTSUNNY   69  33  26 E15       30.00F
ST PAUL        PTSUNNY   70  33  25 SE10G21   30.01F
CRYSTAL        MOSUNNY   71  32  23 E12       30.00F
BLAINE         PTSUNNY   70  32  24 E12       30.01F
LAKEVILLE      MOSUNNY   70  36  28 E10G22    29.99F
EDEN PRAIRIE   MOSUNNY   70  33  25 E10G20    29.99F
SOUTH ST PAUL  PTSUNNY   69  31  24 E10G16    30.00F
LAKE ELMO      FAIR      70  34  26 E12G17    30.03F
$$
MNZ001>005-007-008-013>017-022>024-027-028-182000-
   Northwest Minnesota

CITY           SKY/WX    TMP DP  RH WIND       PRES   REMARKS
BEMIDJI        SUNNY     60  29  31 SE10      30.05F
HALLOCK        SUNNY     64  18  16 SE12G18   30.01F
ROSEAU         SUNNY     61  21  21 SE14G22   30.05F
WARROAD        SUNNY     52  30  43 E7        30.07F
THIEF RVR FALL MOSUNNY   63  27  25 S5        30.02F
CROOKSTON      MOSUNNY   66  25  20 S7        30.00F
FOSSTON        SUNNY     66  27  22 SE5       30.02F
DETROIT LAKES  SUNNY     64  32  29 S13       30.01F
MOORHEAD       PTSUNNY   70  28  21 S8        29.98F
PARK RAPIDS    SUNNY     64  28  25 SE10G17   30.03F
MAHNOMEN       FAIR      64  29  26 SE5       30.01F
$$
MNZ006-009>011-018-025>026-182000-
   North Central Minnesota

CITY           SKY/WX    TMP DP  RH WIND       PRES   REMARKS
BAUDETTE       SUNNY     62  20  19 SE16      30.07F
FLAG ISLAND    SUNNY     48  25  40 SE3       30.08F
INTL FALLS     SUNNY     61  17  18 SE17G29   30.11F
WASKISH        SUNNY     63  27  25 SE12G17   30.06F
BIG FORK       SUNNY     63  25  23 SE9G17    30.09F
LONGVILLE      SUNNY     63  27  25 SE7       30.06F
GRAND RAPIDS   SUNNY     57  23  26 SE10G24   30.09F
ORR            SUNNY     61  16  17 SE5G17    30.09F
COOK           SUNNY     57  19  23 SE10G17   30.13F
WALKER         FAIR      57  30  36 E9        30.06F
$$
MNZ012-019>021-037-182000-
   Northeast Minnesota

CITY           SKY/WX    TMP DP  RH WIND       PRES   REMARKS
DULUTH         MOSUNNY   49  30  48 E17G25    30.15F
ELY            SUNNY     55  16  21 SE17      30.15F
HIBBING        SUNNY     59  18  20 SE17G24   30.12F
EVELETH        SUNNY     57  19  23 SE12G22   30.14F
DULUTH HARBOR  MOSUNNY   41  36  81 NE22G28   30.19F
TWO HARBORS    SUNNY     50  36  57 E17G25    30.17F
SILVER BAY     SUNNY     48  34  57 NE16      30.20F
GRAND MARAIS     N/A     41  32  70 E12       30.26F
G MARAIS ARPRT SUNNY     46  19  34 E8G16     30.23F
$$
MNZ029>031-032-039>041-046>048-054>057-064-182000-
   West Central Minnesota

CITY           SKY/WX    TMP DP  RH WIND       PRES   REMARKS
FERGUS FALLS   MOSUNNY   70  21  16 SE14G20   29.98F
WHEATON        SUNNY     72  28  20 E13G21    29.96F
MORRIS         SUNNY     75  27  16 SE14G21   29.95F
ALEXANDRIA     SUNNY     68  30  24 E16       30.00F
ELBOW LAKE     FAIR      69  32  25 SE10G18   29.97F
WADENA         SUNNY     64  34  32 E12G18    30.01F
GLENWOOD       SUNNY     72  30  21 E16G24    29.99F
APPLETON       SUNNY     77  19  11 E12G22    29.94F HAZE
BENSON         SUNNY     73  23  15 SE10G18   29.96F
ORTONVILLE     SUNNY     72  21  15 E16       29.93F
MADISON        MOSUNNY   73  21  14 E14       29.94F
WILLMAR        FAIR      73  30  20 E15G25    29.98F
$$
MNZ033>034-036-042>043-049>051-058-059-182000-
   Central Minnesota

CITY           SKY/WX    TMP DP  RH WIND       PRES   REMARKS
ST CLOUD       SUNNY     67  30  25 E14G20    30.01F
SAUK CENTRE    FAIR      68  34  28 E10       30.00F
PAYNESVILLE    SUNNY     66  32  27 NE14G21   30.00F
AITKIN         SUNNY     63  30  29 E9G16     30.06F
PINE RIVER     SUNNY     61  36  39 E15G21    30.08F
BRAINERD       SUNNY     61  30  31 SE9G16    30.06F
STAPLES        SUNNY     63  28  27 SE8       30.03F
LONG PRAIRIE   FAIR      64  32  29 E10G20    30.02F
LITTLE FALLS   SUNNY     64  32  29 E12       30.03F
LITCHFIELD     MOSUNNY   72  32  23 E16G22    29.99F
BUFFALO        MOSUNNY   69  30  23 E10G21    30.01F
MAPLE LAKE     MOSUNNY   70  36  28 E13       30.02F
$$
MNZ037-044-045-052-053-182000-
   East Central Minnesota

CITY           SKY/WX    TMP DP  RH WIND       PRES   REMARKS
PRINCETON      SUNNY     70  30  23 NE10      30.03F
MORA           SUNNY     64  32  29 E8G16     30.07F
CAMBRIDGE      SUNNY     70  45  40 E10G16    30.02F
RUSH CITY      SUNNY     66  34  30 E7        30.05F
MOOSE LAKE     MOSUNNY   54  32  43 E12G17    30.09F
HINCKLEY       FAIR      63  32  31 E9        30.07F
CLOQUET        MOSUNNY   48  30  49 E17       30.14F
MCGREGOR       MOSUNNY   55  32  41 E13G20    30.10F
$$
MNZ071>073-080-081-089-090-097-098-182000-
   Southwest Minnesota

CITY           SKY/WX    TMP DP  RH WIND       PRES   REMARKS
MONTEVIDEO     MOSUNNY   73  27  17 S17G24    29.95F
GRANITE FALLS  PTSUNNY   72  30  20 E9G17     29.95F
CANBY          PTSUNNY   73  28  19 SE17      29.93F
MARSHALL       CLOUDY    73  32  21 SE14G24   29.92F
REDWOOD FALLS  PTSUNNY   73  31  21 SE10G23   29.94F
OLIVIA         MOSUNNY   72  32  23 E13G20    29.95F
PIPESTONE      CLOUDY    66  36  32 SE17      29.93S
WORTHINGTON    CLOUDY    64  46  52 SE20      29.94S
JACKSON        CLOUDY    64  46  52 SE17      29.96F
TRACY          CLOUDY    73  38  27 SE18G25   29.93F
SLAYTON        CLOUDY    69  36  30 SE18      29.94F
$$
MNZ065>067-074>077-082>085-091>093-182000-
   South Central Minnesota

CITY           SKY/WX    TMP DP  RH WIND       PRES   REMARKS
MANKATO        MOSUNNY   73  36  25 CALM      29.95F
NEW ULM        PTSUNNY   73  32  21 E13G21    29.94F
ST JAMES       PTSUNNY   73  32  21 SE17G23   29.95S
FAIRMONT       CLOUDY    68  36  30 S17       29.95F
GLENCOE        MOSUNNY   73  35  25 E14G22    29.98F
FARIBAULT      MOSUNNY   73  34  23 E13G20    29.98F
OWATONNA       MOSUNNY   75  36  23 SE12G21   29.97F
ALBERT LEA     PTSUNNY   72  43  35 SE13      29.95F
$$
MNZ078>079-086>088-094>096-182000-
   Southeast Minnesota

CITY           SKY/WX    TMP DP  RH WIND       PRES   REMARKS
ROCHESTER      MOSUNNY   72  42  34 E17G24    30.00F
RED WING       PTSUNNY   73  28  19 SE14      30.00F
STANTON        MOSUNNY   74  31  20 E15G21    29.98F
DODGE CENTER   MOSUNNY   73  37  27 E18       29.99F
WINONA         MOSUNNY   73  37  27 SE14G20   30.01F
AUSTIN         PTSUNNY   73  43  33 SE17G23   29.97F
PRESTON        MOSUNNY   71  38  29 E15G21    30.00F
$$
ABBREVIATIONS USED IN REMARKS
   TC - TEMPERATURES IN CELSIUS
  WCI - WIND CHILL INDEX
   HX - HEAT INDEX
  VSB - VISIBILITY
$$


USA.gov is the U.S. government's official web portal to all federal, state and local government web resources and services.